Overview Statistics Trail Chart Weather Telemetry Raw packets
 

This is the latest recevied weather packets stored in our database for station/object K1RFS. If no packets are shown the sender has not sent any weather packets the latest 10 day(s).

<< 30 31 32 33 34 35 36 >>
Time Temp. Humidity Pressure Rain* Wind** Luminosity Snow
1788486934 25.56° C 16% 995.9 hPa 0 mm - 3 W/m² -
1788486632 26.11° C 16% 995.8 hPa 0 mm - 5 W/m² -
1788486326 26.11° C 16% 996 hPa 0 mm - 8 W/m² -
1788486022 26.67° C 15% 995.9 hPa 0 mm - 10 W/m² -
1788485719 26.67° C 16% 996 hPa 0 mm - 13 W/m² -
1788485415 26.67° C 16% 996.1 hPa 0 mm - 15 W/m² -
1788485114 26.67° C 15% 996 hPa 0 mm - 20 W/m² -
1788484809 27.22° C 15% 996.2 hPa 0 mm - 25 W/m² -
1788484503 27.22° C 15% 996.1 hPa 0 mm - 35 W/m² -
1788484199 27.22° C 15% 996.2 hPa 0 mm - 37 W/m² -
1788483894 27.78° C 15% 996.1 hPa 0 mm - 45 W/m² -
1788483589 27.22° C 15% 996.1 hPa 0 mm - 58 W/m² -
1788483285 27.22° C 15% 996.1 hPa 0 mm - 59 W/m² -
1788482985 27.78° C 15% 996.1 hPa 0 mm - 50 W/m² -
1788482682 27.78° C 15% 996.5 hPa 0 mm - 89 W/m² -
1788482381 27.78° C 14% 996.4 hPa 0 mm - 91 W/m² -
1788482078 27.22° C 15% 996.4 hPa 0 mm - 47 W/m² -
1788481773 27.22° C 15% 996.1 hPa 0 mm - 46 W/m² -
1788481470 27.78° C 15% 996.2 hPa 0 mm - 46 W/m² -
1788481168 27.78° C 15% 996.1 hPa 0 mm - 48 W/m² -
1788480863 27.78° C 15% 996.4 hPa 0 mm - 60 W/m² -
1788480558 28.33° C 15% 996.2 hPa 0 mm - 56 W/m² -
1788480251 28.89° C 16% 996.2 hPa 0 mm - 56 W/m² -
1788479946 29.44° C 15% 996.2 hPa 0 mm - 65 W/m² -
1788479643 30° C 15% 996.2 hPa 0 mm - 112 W/m² -

* Rain latest hour (hover to see other rain measurements)
** Current wind speed in m/s (hover to see current wind gust speed)